owner,sensor,date,latitude,longitude,vertical_datum,wind_speed,wind_to_direction,wind_speed_of_gust,qcFlag 
TABS,ioos:station:TABS:H:1,2007-07-01T00:00:00Z,27.8674,-96.5433,4.0,5.292003401,143.065438,6.73,'11111222,11111222,11111222' 
TABS,ioos:station:TABS:H:1,2007-07-01T00:30:00Z,27.8674,-96.5433,4.0,7.118602391,150.7345984,8.56,'11111222,11111222,11111222' 
TABS,ioos:station:TABS:H:1,2007-07-01T01:00:00Z,27.8674,-96.5433,4.0,6.805299406,147.6646972,8.24,'11111222,11111222,11111222' 
TABS,ioos:station:TABS:H:1,2007-07-01T01:30:00Z,27.8674,-96.5433,4.0,7.150950986,153.5068857,11.19,'11111222,11111222,11111222' 
TABS,ioos:station:TABS:H:1,2007-07-01T02:00:00Z,27.8674,-96.5433,4.0,7.496325767,156.9923579,8.92,'11111222,11111222,11111222' 
TABS,ioos:station:TABS:H:1,2007-07-01T02:30:00Z,27.8674,-96.5433,4.0,7.559100476,152.4182457,8.61,'11111222,11111222,11111222' 
TABS,ioos:station:TABS:H:1,2007-07-01T03:00:00Z,27.8674,-96.5433,4.0,6.969225208,144.87357,8.42,'11111222,11111222,11111222' 
TABS,ioos:station:TABS:H:1,2007-07-01T03:30:00Z,27.8674,-96.5433,4.0,6.618912297,147.4627029,7.62,'11111222,11111222,11111222' 
TABS,ioos:station:TABS:H:1,2007-07-01T04:00:00Z,27.8674,-96.5433,4.0,8.146655756,162.2770153,9.72,'11111222,11111222,11111222' 
TABS,ioos:station:TABS:H:1,2007-07-01T04:30:00Z,27.8674,-96.5433,4.0,6.48951462,160.8393754,7.85,'11111222,11111222,11111222' 
TABS,ioos:station:TABS:H:1,2007-07-01T05:00:00Z,27.8674,-96.5433,4.0,6.143484353,167.5928209,7.4,'11111222,11111222,11111222' 
TABS,ioos:station:TABS:H:1,2007-07-01T05:30:00Z,27.8674,-96.5433,4.0,7.337744885,167.7255131,9.03,'11111222,11111222,11111222' 
TABS,ioos:station:TABS:H:1,2007-07-01T06:00:00Z,27.8674,-96.5433,4.0,7.702811175,169.7552651,9.58,'11111222,11111222,11111222' 
TABS,ioos:station:TABS:H:1,2007-07-01T06:30:00Z,27.8674,-96.5433,4.0,8.763931766,172.0642862,10.6,'11111222,11111222,11111222' 
TABS,ioos:station:TABS:H:1,2007-07-01T07:00:00Z,27.8674,-96.5433,4.0,8.020006234,179.9287695,9.66,'11111222,11111222,11111222' 
TABS,ioos:station:TABS:H:1,2007-07-01T07:30:00Z,27.8674,-96.5433,4.0,8.534272084,178.1872373,10.8,'11111222,11111222,11111222' 
TABS,ioos:station:TABS:H:1,2007-07-01T08:00:00Z,27.8674,-96.5433,4.0,7.901828902,178.7674564,9.48,'11111222,11111222,11111222' 
TABS,ioos:station:TABS:H:1,2007-07-01T08:30:00Z,27.8674,-96.5433,4.0,7.010064194,175.6642021,8.82,'11111222,11111222,11111222' 
TABS,ioos:station:TABS:H:1,2007-07-01T09:00:00Z,27.8674,-96.5433,4.0,7.030711202,179.1852491,9.1,'11111222,11111222,11111222' 
TABS,ioos:station:TABS:H:1,2007-07-01T09:30:00Z,27.8674,-96.5433,4.0,7.273101127,170.8228321,9.33,'11111222,11111222,11111222' 
TABS,ioos:station:TABS:H:1,2007-07-01T10:00:00Z,27.8674,-96.5433,4.0,7.698896025,177.2455872,9.35,'11111222,11111222,11111222' 
TABS,ioos:station:TABS:H:1,2007-07-01T10:30:00Z,27.8674,-96.5433,4.0,8.060750585,179.2183085,9.72,'11111222,11111222,11111222' 
TABS,ioos:station:TABS:H:1,2007-07-01T11:00:00Z,27.8674,-96.5433,4.0,7.420673824,180.7723422,8.78,'11111222,11111222,11111222' 
TABS,ioos:station:TABS:H:1,2007-07-01T11:30:00Z,27.8674,-96.5433,4.0,7.362567487,183.3483842,8.56,'11111222,11111222,11111222' 
TABS,ioos:station:TABS:H:1,2007-07-01T12:00:00Z,27.8674,-96.5433,4.0,6.927799073,185.1347259,8.46,'11111222,11111222,11111222' 
TABS,ioos:station:TABS:H:1,2007-07-01T12:30:00Z,27.8674,-96.5433,4.0,7.511657607,173.9632714,8.96,'11111222,11111222,11111222' 
TABS,ioos:station:TABS:H:1,2007-07-01T13:00:00Z,27.8674,-96.5433,4.0,7.321973778,178.669813,8.59,'11111222,11111222,11111222' 
TABS,ioos:station:TABS:H:1,2007-07-01T13:30:00Z,27.8674,-96.5433,4.0,7.003149292,178.2818565,8.1,'11111222,11111222,11111222' 
TABS,ioos:station:TABS:H:1,2007-07-01T14:00:00Z,27.8674,-96.5433,4.0,6.2949583,174.8964383,7.42,'11111222,11111222,11111222' 
TABS,ioos:station:TABS:H:1,2007-07-01T14:30:00Z,27.8674,-96.5433,4.0,6.730832044,171.1116874,7.78,'11111222,11111222,11111222' 
TABS,ioos:station:TABS:H:1,2007-07-01T15:00:00Z,27.8674,-96.5433,4.0,7.755565743,171.9955003,9.23,'11111222,11111222,11111222' 
TABS,ioos:station:TABS:H:1,2007-07-01T15:30:00Z,27.8674,-96.5433,4.0,7.200944383,163.3772165,8.5,'11111222,11111222,11111222' 
TABS,ioos:station:TABS:H:1,2007-07-01T16:00:00Z,27.8674,-96.5433,4.0,7.99855612,162.5393954,9.48,'11111222,11111222,11111222' 
TABS,ioos:station:TABS:H:1,2007-07-01T16:30:00Z,27.8674,-96.5433,4.0,8.191758053,159.6406828,9.94,'11111222,11111222,11111222' 
TABS,ioos:station:TABS:H:1,2007-07-01T17:00:00Z,27.8674,-96.5433,4.0,8.662707429,158.321672,10.08,'11111222,11111222,11111222' 
TABS,ioos:station:TABS:H:1,2007-07-01T17:30:00Z,27.8674,-96.5433,4.0,8.377696581,156.280819,10.5,'11111222,11111222,11111222' 
TABS,ioos:station:TABS:H:1,2007-07-01T18:00:00Z,27.8674,-96.5433,4.0,8.577785262,153.8534304,10.28,'11111222,11111222,11111222' 
TABS,ioos:station:TABS:H:1,2007-07-01T18:30:00Z,27.8674,-96.5433,4.0,8.033753793,154.6473092,9.58,'11111222,11111222,11111222' 
TABS,ioos:station:TABS:H:1,2007-07-01T19:00:00Z,27.8674,-96.5433,4.0,7.293243449,156.1414727,8.68,'11111222,11111222,11111222' 
TABS,ioos:station:TABS:H:1,2007-07-01T19:30:00Z,27.8674,-96.5433,4.0,7.616304878,153.9062261,9.21,'11111222,11111222,11111222' 
TABS,ioos:station:TABS:H:1,2007-07-01T20:00:00Z,27.8674,-96.5433,4.0,7.879086241,156.0377775,9.06,'11111222,11111222,11111222' 
TABS,ioos:station:TABS:H:1,2007-07-01T20:30:00Z,27.8674,-96.5433,4.0,7.59266093,145.1380958,9.04,'11111222,11111222,11111222' 
TABS,ioos:station:TABS:H:1,2007-07-01T21:00:00Z,27.8674,-96.5433,4.0,7.041945754,148.5900033,8.54,'11111222,11111222,11111222' 
TABS,ioos:station:TABS:H:1,2007-07-01T21:30:00Z,27.8674,-96.5433,4.0,6.82402374,149.3389132,8.31,'11111222,11111222,11111222' 
TABS,ioos:station:TABS:H:1,2007-07-01T22:00:00Z,27.8674,-96.5433,4.0,6.79718324,144.8839717,8.4,'11111222,11111222,11111222' 
TABS,ioos:station:TABS:H:1,2007-07-01T22:30:00Z,27.8674,-96.5433,4.0,6.71804287,147.0908325,7.97,'11111222,11111222,11111222' 
TABS,ioos:station:TABS:H:1,2007-07-01T23:00:00Z,27.8674,-96.5433,4.0,6.296411677,143.7855939,8.54,'11111222,11111222,11111222' 
TABS,ioos:station:TABS:H:1,2007-07-01T23:30:00Z,27.8674,-96.5433,4.0,7.326076713,147.373139,8.57,'11111222,11111222,11111222' 
TABS,ioos:station:TABS:H:1,2007-07-02T00:00:00Z,27.8674,-96.5433,4.0,7.052772504,149.872493,8.49,'11111222,11111222,11111222' 
TABS,ioos:station:TABS:H:1,2007-07-02T00:30:00Z,27.8674,-96.5433,4.0,7.143703521,144.9754191,8.28,'11111222,11111222,11111222' 
TABS,ioos:station:TABS:H:1,2007-07-02T01:00:00Z,27.8674,-96.5433,4.0,7.59942761,148.5063854,9.18,'11111222,11111222,11111222' 
TABS,ioos:station:TABS:H:1,2007-07-02T01:30:00Z,27.8674,-96.5433,4.0,7.99452938,148.1392424,9.59,'11111222,11111222,11111222' 
TABS,ioos:station:TABS:H:1,2007-07-02T02:00:00Z,27.8674,-96.5433,4.0,7.92729462,154.9222462,9.41,'11111222,11111222,11111222' 
TABS,ioos:station:TABS:H:1,2007-07-02T02:30:00Z,27.8674,-96.5433,4.0,8.253805183,155.8263294,9.73,'11111222,11111222,11111222' 
TABS,ioos:station:TABS:H:1,2007-07-02T03:00:00Z,27.8674,-96.5433,4.0,8.228000972,159.3627117,9.56,'11111222,11111222,11111222' 
TABS,ioos:station:TABS:H:1,2007-07-02T03:30:00Z,27.8674,-96.5433,4.0,9.303338111,158.2331607,11.46,'11111222,11111222,11111222' 
TABS,ioos:station:TABS:H:1,2007-07-02T04:00:00Z,27.8674,-96.5433,4.0,9.809729864,161.0850817,11.68,'11111222,11111222,11111222' 
TABS,ioos:station:TABS:H:1,2007-07-02T04:30:00Z,27.8674,-96.5433,4.0,9.735584215,166.3351174,11.34,'11111222,11111222,11111222' 
TABS,ioos:station:TABS:H:1,2007-07-02T05:00:00Z,27.8674,-96.5433,4.0,10.0570622,171.2497373,11.88,'11111222,11111222,11111222' 
TABS,ioos:station:TABS:H:1,2007-07-02T05:30:00Z,27.8674,-96.5433,4.0,10.30390703,166.7597215,12.51,'11111222,11111222,11111222' 
TABS,ioos:station:TABS:H:1,2007-07-02T06:00:00Z,27.8674,-96.5433,4.0,10.19883327,166.3318859,12.33,'11111222,11111222,11111222' 
TABS,ioos:station:TABS:H:1,2007-07-02T06:30:00Z,27.8674,-96.5433,4.0,10.7013644,167.8082564,12.87,'11111222,11111222,11111222' 
TABS,ioos:station:TABS:H:1,2007-07-02T07:00:00Z,27.8674,-96.5433,4.0,10.57733898,165.4910357,13.35,'11111222,11111222,11111222' 
TABS,ioos:station:TABS:H:1,2007-07-02T07:30:00Z,27.8674,-96.5433,4.0,10.06542597,166.3229558,12.17,'11111222,11111222,11111222' 
TABS,ioos:station:TABS:H:1,2007-07-02T08:00:00Z,27.8674,-96.5433,4.0,10.79601778,161.5317396,12.73,'11111222,11111222,11111222' 
TABS,ioos:station:TABS:H:1,2007-07-02T08:30:00Z,27.8674,-96.5433,4.0,10.14292364,166.1969077,11.91,'11111222,11111222,11111222' 
TABS,ioos:station:TABS:H:1,2007-07-02T09:00:00Z,27.8674,-96.5433,4.0,10.02880352,167.7378927,11.51,'11111222,11111222,11111222' 
TABS,ioos:station:TABS:H:1,2007-07-02T09:30:00Z,27.8674,-96.5433,4.0,10.60608316,168.4148467,12.4,'11111222,11111222,11111222' 
TABS,ioos:station:TABS:H:1,2007-07-02T10:00:00Z,27.8674,-96.5433,4.0,8.283990584,175.638648,10.74,'11111222,11111222,11111222' 
TABS,ioos:station:TABS:H:1,2007-07-02T10:30:00Z,27.8674,-96.5433,4.0,8.26951631,172.5658328,9.99,'11111222,11111222,11111222' 
TABS,ioos:station:TABS:H:1,2007-07-02T11:00:00Z,27.8674,-96.5433,4.0,8.605777129,169.0820188,10.43,'11111222,11111222,11111222' 
TABS,ioos:station:TABS:H:1,2007-07-02T11:30:00Z,27.8674,-96.5433,4.0,8.382869437,173.5619117,10.29,'11111222,11111222,11111222' 
TABS,ioos:station:TABS:H:1,2007-07-02T12:00:00Z,27.8674,-96.5433,4.0,7.536796402,177.5667999,8.86,'11111222,11111222,11111222' 
TABS,ioos:station:TABS:H:1,2007-07-02T12:30:00Z,27.8674,-96.5433,4.0,7.024450156,177.9606292,8.33,'11111222,11111222,11111222' 
TABS,ioos:station:TABS:H:1,2007-07-02T13:00:00Z,27.8674,-96.5433,4.0,6.163651515,183.8142764,7.17,'11111222,11111222,11111222' 
TABS,ioos:station:TABS:H:1,2007-07-02T13:30:00Z,27.8674,-96.5433,4.0,4.825484432,182.7321628,5.89,'11111222,11111222,11111222' 
TABS,ioos:station:TABS:H:1,2007-07-02T14:00:00Z,27.8674,-96.5433,4.0,9.552434245,335.1786258,12.19,'11111222,11111222,11111222' 
TABS,ioos:station:TABS:H:1,2007-07-02T14:30:00Z,27.8674,-96.5433,4.0,8.795964984,335.911694,11.13,'11111222,11111222,11111222' 
TABS,ioos:station:TABS:H:1,2007-07-02T15:00:00Z,27.8674,-96.5433,4.0,8.197469122,336.7186551,10.2,'11111222,11111222,11111222' 
TABS,ioos:station:TABS:H:1,2007-07-02T15:30:00Z,27.8674,-96.5433,4.0,3.982084881,318.6650708,5.11,'11111222,11111222,11111222' 
TABS,ioos:station:TABS:H:1,2007-07-02T16:00:00Z,27.8674,-96.5433,4.0,5.466744918,280.2204538,6.37,'11111222,11111222,11111222' 
TABS,ioos:station:TABS:H:1,2007-07-02T16:30:00Z,27.8674,-96.5433,4.0,7.879524097,303.7706584,11.27,'11111222,11111222,11111222' 
TABS,ioos:station:TABS:H:1,2007-07-02T17:00:00Z,27.8674,-96.5433,4.0,6.677200012,32.52355523,8.29,'11111222,11111222,11111222' 
TABS,ioos:station:TABS:H:1,2007-07-02T17:30:00Z,27.8674,-96.5433,4.0,5.697595984,58.34603491,7.07,'11111222,11111222,11111222' 
TABS,ioos:station:TABS:H:1,2007-07-02T18:00:00Z,27.8674,-96.5433,4.0,7.800743554,104.8561029,9.24,'11111222,11111222,11111222' 
TABS,ioos:station:TABS:H:1,2007-07-02T18:30:00Z,27.8674,-96.5433,4.0,9.557081144,116.2704888,10.86,'11111222,11111222,11111222' 
TABS,ioos:station:TABS:H:1,2007-07-02T19:00:00Z,27.8674,-96.5433,4.0,8.329525797,124.4344671,9.72,'11111222,11111222,11111222' 
TABS,ioos:station:TABS:H:1,2007-07-02T19:30:00Z,27.8674,-96.5433,4.0,7.013772166,141.2511875,8.29,'11111222,11111222,11111222' 
TABS,ioos:station:TABS:H:1,2007-07-02T20:00:00Z,27.8674,-96.5433,4.0,5.901770921,149.7857728,6.97,'11111222,11111222,11111222' 
TABS,ioos:station:TABS:H:1,2007-07-02T20:30:00Z,27.8674,-96.5433,4.0,7.884376957,153.4027225,9.07,'11111222,11111222,11111222' 
TABS,ioos:station:TABS:H:1,2007-07-02T21:00:00Z,27.8674,-96.5433,4.0,6.933339744,133.130102,8.02,'11111222,11111222,11111222' 
TABS,ioos:station:TABS:H:1,2007-07-02T21:30:00Z,27.8674,-96.5433,4.0,7.665989825,131.4042098,9.19,'11111222,11111222,11111222' 
TABS,ioos:station:TABS:H:1,2007-07-02T22:00:00Z,27.8674,-96.5433,4.0,6.582188086,120.6953937,8.19,'11111222,11111222,11111222' 
TABS,ioos:station:TABS:H:1,2007-07-02T22:30:00Z,27.8674,-96.5433,4.0,6.204595071,124.2282609,7.53,'11111222,11111222,11111222' 
TABS,ioos:station:TABS:H:1,2007-07-02T23:00:00Z,27.8674,-96.5433,4.0,5.131403317,119.4128469,5.91,'11111222,11111222,11111222' 
TABS,ioos:station:TABS:H:1,2007-07-02T23:30:00Z,27.8674,-96.5433,4.0,6.140439724,117.024433,7.37,'11111222,11111222,11111222' 
TABS,ioos:station:TABS:H:1,2007-07-03T00:00:00Z,27.8674,-96.5433,4.0,6.436342129,114.2159328,7.34,'11111222,11111222,11111222' 
TABS,ioos:station:TABS:H:1,2007-07-03T00:30:00Z,27.8674,-96.5433,4.0,6.747206829,106.1790667,7.75,'11111222,11111222,11111222' 
TABS,ioos:station:TABS:H:1,2007-07-03T01:00:00Z,27.8674,-96.5433,4.0,6.978022643,105.62998,8.24,'11111222,11111222,11111222' 
TABS,ioos:station:TABS:H:1,2007-07-03T01:30:00Z,27.8674,-96.5433,4.0,7.423233797,106.4334805,8.62,'11111222,11111222,11111222' 
TABS,ioos:station:TABS:H:1,2007-07-03T02:00:00Z,27.8674,-96.5433,4.0,6.782403704,106.8857291,8.61,'11111222,11111222,11111222' 
TABS,ioos:station:TABS:H:1,2007-07-03T02:30:00Z,27.8674,-96.5433,4.0,6.800772015,102.483509,7.86,'11111222,11111222,11111222' 
TABS,ioos:station:TABS:H:1,2007-07-03T03:00:00Z,27.8674,-96.5433,4.0,6.591934466,107.1158905,7.74,'11111222,11111222,11111222' 
TABS,ioos:station:TABS:H:1,2007-07-03T03:30:00Z,27.8674,-96.5433,4.0,6.25991214,103.7702454,7.45,'11111222,11111222,11111222' 
TABS,ioos:station:TABS:H:1,2007-07-03T04:00:00Z,27.8674,-96.5433,4.0,6.308763746,108.5789244,7.64,'11111222,11111222,11111222' 
TABS,ioos:station:TABS:H:1,2007-07-03T04:30:00Z,27.8674,-96.5433,4.0,6.10724979,109.4143905,7.0,'11111222,11111222,11111222' 
TABS,ioos:station:TABS:H:1,2007-07-03T05:00:00Z,27.8674,-96.5433,4.0,5.986994238,107.49713,7.81,'11111222,11111222,11111222' 
TABS,ioos:station:TABS:H:1,2007-07-03T05:30:00Z,27.8674,-96.5433,4.0,4.92114824,102.2008611,5.96,'11111222,11111222,11111222' 
TABS,ioos:station:TABS:H:1,2007-07-03T06:00:00Z,27.8674,-96.5433,4.0,4.736253794,112.9924587,5.32,'11111222,11111222,11111222' 
TABS,ioos:station:TABS:H:1,2007-07-03T06:30:00Z,27.8674,-96.5433,4.0,5.726587116,143.9508534,7.49,'11111222,11111222,11111222' 
TABS,ioos:station:TABS:H:1,2007-07-03T07:00:00Z,27.8674,-96.5433,4.0,6.459055659,151.0146014,7.71,'11111222,11111222,11111222' 
TABS,ioos:station:TABS:H:1,2007-07-03T07:30:00Z,27.8674,-96.5433,4.0,7.327591692,123.6470367,8.98,'11111222,11111222,11111222' 
TABS,ioos:station:TABS:H:1,2007-07-03T08:00:00Z,27.8674,-96.5433,4.0,5.156442572,130.517256,6.19,'11111222,11111222,11111222' 
TABS,ioos:station:TABS:H:1,2007-07-03T08:30:00Z,27.8674,-96.5433,4.0,5.16557838,120.7358367,6.28,'11111222,11111222,11111222' 
TABS,ioos:station:TABS:H:1,2007-07-03T09:00:00Z,27.8674,-96.5433,4.0,4.436541446,117.0852151,5.62,'11111222,11111222,11111222' 
TABS,ioos:station:TABS:H:1,2007-07-03T09:30:00Z,27.8674,-96.5433,4.0,5.500190906,107.3481907,6.34,'11111222,11111222,11111222' 
TABS,ioos:station:TABS:H:1,2007-07-03T10:00:00Z,27.8674,-96.5433,4.0,6.279936305,94.56705584,8.53,'11111222,11111222,11111222' 
TABS,ioos:station:TABS:H:1,2007-07-03T10:30:00Z,27.8674,-96.5433,4.0,8.790523306,92.80423164,10.6,'11111222,11111222,11111222' 
TABS,ioos:station:TABS:H:1,2007-07-03T11:00:00Z,27.8674,-96.5433,4.0,11.61213159,108.0608506,14.79,'11111222,11111222,11111222' 
TABS,ioos:station:TABS:H:1,2007-07-03T11:30:00Z,27.8674,-96.5433,4.0,12.85155633,125.9785433,16.6,'11111222,11111222,11111222' 
TABS,ioos:station:TABS:H:1,2007-07-03T12:00:00Z,27.8674,-96.5433,4.0,12.17657177,155.4978996,14.58,'11111222,11111222,11111222' 
TABS,ioos:station:TABS:H:1,2007-07-03T12:30:00Z,27.8674,-96.5433,4.0,11.61658297,150.8977683,14.56,'11111222,11111222,11111222' 
TABS,ioos:station:TABS:H:1,2007-07-03T13:00:00Z,27.8674,-96.5433,4.0,11.61530886,158.0064932,13.63,'11111222,11111222,11111222' 
TABS,ioos:station:TABS:H:1,2007-07-03T13:30:00Z,27.8674,-96.5433,4.0,8.100691329,147.6050398,9.4,'11111222,11111222,11111222' 
TABS,ioos:station:TABS:H:1,2007-07-03T14:00:00Z,27.8674,-96.5433,4.0,9.009955605,129.822183,10.71,'11111222,11111222,11111222' 
TABS,ioos:station:TABS:H:1,2007-07-03T14:30:00Z,27.8674,-96.5433,4.0,8.769064944,124.9227738,11.09,'11111222,11111222,11111222' 
TABS,ioos:station:TABS:H:1,2007-07-03T15:00:00Z,27.8674,-96.5433,4.0,10.79925923,113.8120195,13.22,'11111222,11111222,11111222' 
TABS,ioos:station:TABS:H:1,2007-07-03T15:30:00Z,27.8674,-96.5433,4.0,11.74918295,122.3107104,13.76,'11111222,11111222,11111222' 
TABS,ioos:station:TABS:H:1,2007-07-03T16:00:00Z,27.8674,-96.5433,4.0,10.58316115,137.7193368,13.14,'11111222,11111222,11111222' 
TABS,ioos:station:TABS:H:1,2007-07-03T16:30:00Z,27.8674,-96.5433,4.0,10.71658994,133.4501188,12.46,'11111222,11111222,11111222' 
TABS,ioos:station:TABS:H:1,2007-07-03T17:00:00Z,27.8674,-96.5433,4.0,12.45228493,140.8015428,15.41,'11111222,11111222,11111222' 
TABS,ioos:station:TABS:H:1,2007-07-03T17:30:00Z,27.8674,-96.5433,4.0,13.04207422,143.3236975,16.19,'11111222,11111222,11111222' 
TABS,ioos:station:TABS:H:1,2007-07-03T18:00:00Z,27.8674,-96.5433,4.0,14.83027309,127.2179427,18.48,'11111222,11111222,11111222' 
TABS,ioos:station:TABS:H:1,2007-07-03T18:30:00Z,27.8674,-96.5433,4.0,13.43165291,131.0457999,17.19,'11111222,11111222,11111222' 
TABS,ioos:station:TABS:H:1,2007-07-03T19:00:00Z,27.8674,-96.5433,4.0,14.13757051,132.2194879,17.08,'11111222,11111222,11111222' 
TABS,ioos:station:TABS:H:1,2007-07-03T19:30:00Z,27.8674,-96.5433,4.0,15.25849927,137.3906756,19.55,'11111222,11111222,11111222' 
TABS,ioos:station:TABS:H:1,2007-07-03T20:00:00Z,27.8674,-96.5433,4.0,14.7562868,143.4876185,18.04,'11111222,11111222,11111222' 
TABS,ioos:station:TABS:H:1,2007-07-03T20:30:00Z,27.8674,-96.5433,4.0,15.016128,141.2451489,19.3,'11111222,11111222,11111222' 
TABS,ioos:station:TABS:H:1,2007-07-03T21:00:00Z,27.8674,-96.5433,4.0,13.97610819,145.0821586,17.67,'11111222,11111222,11111222' 
TABS,ioos:station:TABS:H:1,2007-07-03T21:30:00Z,27.8674,-96.5433,4.0,15.11937829,138.5933567,18.91,'11111222,11111222,11111222' 
TABS,ioos:station:TABS:H:1,2007-07-03T22:00:00Z,27.8674,-96.5433,4.0,15.46822873,130.5694795,19.41,'11111222,11111222,11111222' 
TABS,ioos:station:TABS:H:1,2007-07-03T22:30:00Z,27.8674,-96.5433,4.0,15.32421939,137.5656567,19.24,'11111222,11111222,11111222' 
TABS,ioos:station:TABS:H:1,2007-07-03T23:00:00Z,27.8674,-96.5433,4.0,14.13600368,144.0950994,17.26,'11111222,11111222,11111222' 
TABS,ioos:station:TABS:H:1,2007-07-03T23:30:00Z,27.8674,-96.5433,4.0,10.14954186,149.4431463,12.19,'11111222,11111222,11111222' 
TABS,ioos:station:TABS:H:1,2007-07-04T00:00:00Z,27.8674,-96.5433,4.0,10.13717909,144.9619688,11.79,'11111222,11111222,11111222' 
TABS,ioos:station:TABS:H:1,2007-07-04T00:30:00Z,27.8674,-96.5433,4.0,9.303859414,150.1560996,11.1,'11111222,11111222,11111222' 
TABS,ioos:station:TABS:H:1,2007-07-04T01:00:00Z,27.8674,-96.5433,4.0,9.082400564,147.5000641,10.71,'11111222,11111222,11111222' 
TABS,ioos:station:TABS:H:1,2007-07-04T01:30:00Z,27.8674,-96.5433,4.0,9.153010434,142.2790404,10.96,'11111222,11111222,11111222' 
TABS,ioos:station:TABS:H:1,2007-07-04T02:00:00Z,27.8674,-96.5433,4.0,6.035760101,138.4929007,7.29,'11111222,11111222,11111222' 
TABS,ioos:station:TABS:H:1,2007-07-04T02:30:00Z,27.8674,-96.5433,4.0,6.413111569,124.5824843,7.72,'11111222,11111222,11111222' 
TABS,ioos:station:TABS:H:1,2007-07-04T03:00:00Z,27.8674,-96.5433,4.0,7.018390129,142.5262781,8.57,'11111222,11111222,11111222' 
TABS,ioos:station:TABS:H:1,2007-07-04T03:30:00Z,27.8674,-96.5433,4.0,6.94460942,127.6292892,8.8,'11111222,11111222,11111222' 
TABS,ioos:station:TABS:H:1,2007-07-04T04:00:00Z,27.8674,-96.5433,4.0,7.800640999,126.135713,9.18,'11111222,11111222,11111222' 
TABS,ioos:station:TABS:H:1,2007-07-04T04:30:00Z,27.8674,-96.5433,4.0,6.342885779,127.8277809,7.76,'11111222,11111222,11111222' 
TABS,ioos:station:TABS:H:1,2007-07-04T05:00:00Z,27.8674,-96.5433,4.0,6.676046734,134.029296,7.66,'11111222,11111222,11111222' 
TABS,ioos:station:TABS:H:1,2007-07-04T05:30:00Z,27.8674,-96.5433,4.0,6.284974145,131.323464,7.71,'11111222,11111222,11111222' 
TABS,ioos:station:TABS:H:1,2007-07-04T06:00:00Z,27.8674,-96.5433,4.0,7.490026702,136.2445014,9.02,'11111222,11111222,11111222' 
TABS,ioos:station:TABS:H:1,2007-07-04T06:30:00Z,27.8674,-96.5433,4.0,7.366627451,146.7416567,8.78,'11111222,11111222,11111222' 
TABS,ioos:station:TABS:H:1,2007-07-04T07:00:00Z,27.8674,-96.5433,4.0,6.303840099,159.380386,7.54,'11111222,11111222,11111222' 
TABS,ioos:station:TABS:H:1,2007-07-04T07:30:00Z,27.8674,-96.5433,4.0,7.980307012,166.8172761,9.44,'11111222,11111222,11111222' 
TABS,ioos:station:TABS:H:1,2007-07-04T08:00:00Z,27.8674,-96.5433,4.0,8.0114543,165.3222044,9.44,'11111222,11111222,11111222' 
TABS,ioos:station:TABS:H:1,2007-07-04T08:30:00Z,27.8674,-96.5433,4.0,7.999212461,172.4576503,9.65,'11111222,11111222,11111222' 
TABS,ioos:station:TABS:H:1,2007-07-04T09:00:00Z,27.8674,-96.5433,4.0,7.003606214,169.2197647,8.48,'11111222,11111222,11111222' 
TABS,ioos:station:TABS:H:1,2007-07-04T09:30:00Z,27.8674,-96.5433,4.0,9.985414363,169.5568195,14.88,'11111222,11111222,11111222' 
TABS,ioos:station:TABS:H:1,2007-07-04T10:00:00Z,27.8674,-96.5433,4.0,13.29183208,174.0408564,17.01,'11111222,11111222,11111222' 
TABS,ioos:station:TABS:H:1,2007-07-04T10:30:00Z,27.8674,-96.5433,4.0,9.76184921,178.8849648,12.85,'11111222,11111222,11111222' 
TABS,ioos:station:TABS:H:1,2007-07-04T11:00:00Z,27.8674,-96.5433,4.0,10.10910481,173.2970116,13.62,'11111222,11111222,11111222' 
TABS,ioos:station:TABS:H:1,2007-07-04T11:30:00Z,27.8674,-96.5433,4.0,8.465984881,199.0985774,10.49,'11111222,11111222,11111222' 
TABS,ioos:station:TABS:H:1,2007-07-04T12:00:00Z,27.8674,-96.5433,4.0,6.112020942,217.0200101,9.23,'11111222,11111222,11111222' 
TABS,ioos:station:TABS:H:1,2007-07-04T12:30:00Z,27.8674,-96.5433,4.0,12.3398906,234.1331546,19.05,'11111222,11111222,11111222' 
TABS,ioos:station:TABS:H:1,2007-07-04T13:00:00Z,27.8674,-96.5433,4.0,3.058005886,306.7573937,5.11,'11111222,11111222,11111222' 
TABS,ioos:station:TABS:H:1,2007-07-04T13:30:00Z,27.8674,-96.5433,4.0,2.754959165,327.7519847,4.81,'11111222,11111222,11111222' 
TABS,ioos:station:TABS:H:1,2007-07-04T14:00:00Z,27.8674,-96.5433,4.0,2.301390884,358.0077006,11.25,'11111222,11111222,11111222' 
TABS,ioos:station:TABS:H:1,2007-07-04T14:30:00Z,27.8674,-96.5433,4.0,4.602977297,230.465459,6.44,'11111222,11111222,11111222' 
TABS,ioos:station:TABS:H:1,2007-07-04T15:00:00Z,27.8674,-96.5433,4.0,3.366095661,219.6967201,4.84,'11111222,11111222,11111222' 
TABS,ioos:station:TABS:H:1,2007-07-04T15:30:00Z,27.8674,-96.5433,4.0,2.250888713,50.22669245,3.47,'11111222,11111222,11111222' 
TABS,ioos:station:TABS:H:1,2007-07-04T16:00:00Z,27.8674,-96.5433,4.0,5.470109688,55.35087845,6.89,'11111222,11111222,11111222' 
TABS,ioos:station:TABS:H:1,2007-07-04T16:30:00Z,27.8674,-96.5433,4.0,7.294799517,53.97806455,11.58,'11111222,11111222,11111222' 
TABS,ioos:station:TABS:H:1,2007-07-04T17:00:00Z,27.8674,-96.5433,4.0,6.323804235,49.9388883,8.5,'11111222,11111222,11111222' 
TABS,ioos:station:TABS:H:1,2007-07-04T17:30:00Z,27.8674,-96.5433,4.0,8.312171798,1.309570081,13.49,'11111222,11111222,11111222' 
TABS,ioos:station:TABS:H:1,2007-07-04T18:00:00Z,27.8674,-96.5433,4.0,7.680162759,27.69919758,10.46,'11111222,11111222,11111222' 
TABS,ioos:station:TABS:H:1,2007-07-04T18:30:00Z,27.8674,-96.5433,4.0,5.555906767,62.09701204,7.0,'11111222,11111222,11111222' 
TABS,ioos:station:TABS:H:1,2007-07-04T19:00:00Z,27.8674,-96.5433,4.0,8.437298146,71.04928416,10.04,'11111222,11111222,11111222' 
TABS,ioos:station:TABS:H:1,2007-07-04T19:30:00Z,27.8674,-96.5433,4.0,8.206107482,69.97476297,9.74,'11111222,11111222,11111222' 
TABS,ioos:station:TABS:H:1,2007-07-04T20:00:00Z,27.8674,-96.5433,4.0,8.483984913,78.71616203,10.23,'11111222,11111222,11111222' 
TABS,ioos:station:TABS:H:1,2007-07-04T20:30:00Z,27.8674,-96.5433,4.0,8.123459854,76.83582352,10.3,'11111222,11111222,11111222' 